Location: Great Falls
(47.5000°N, 111.3000°W)
Time: 18:50:57
(UTC-06:00)

OTV 5 (USA 277) - Visible Passes

Search period start: 15 October 2019 00:00
Search period end: 25 October 2019 00:00
Orbit: 310 x 324 km, 54.5° (Epoch: 08 October)

Date Brightness Start Highest point End Pass type
(mag) Time Alt. Az. Time Alt. Az. Time Alt. Az.
15 Oct ? 05:27:32 17° NE 05:27:32 17° NE 05:28:43 10° ENE visible
15 Oct ? 06:58:34 10° NW 07:01:18 59° NNE 07:04:01 10° ESE visible
16 Oct ? 05:41:47 25° NNE 05:41:47 25° NNE 05:43:46 10° ENE visible
17 Oct ? 05:56:07 42° NNE 05:56:07 42° NNE 05:58:44 10° E visible
18 Oct ? 06:10:32 77° NW 06:10:43 88° NE 06:13:27 10° ESE visible
19 Oct ? 06:25:04 37° SW 06:25:12 37° SW 06:27:46 10° SSE visible
20 Oct ? 06:39:44 16° SW 06:39:44 16° SW 06:41:23 10° S visible
